{"data":{"norad_id":45602,"intl_designator":"2020-028A","name":"XINGYUN-2 01","alt_names":[],"object_type":"PAYLOAD","status":"ACTIVE","operator":null,"country":"PRC","launch_date":"2020-05-12","launch_site_code":"JSC","launch_vehicle":null,"mission":null,"orbit_class":"UNKNOWN","rcs_meters":null,"size_class":null,"mass_kg":null,"dimensions":null,"purposes":[],"wikipedia_slug":null,"has_3d_model":false,"image_url":null,"decayed_at":null,"tle_current":{"epoch":"2026-05-25T05:45:54.285696Z","epoch_age_seconds":50770,"freshness":"FRESH","line1":"1 45602U 20028A   26145.24021164  .00002451  00000+0  14764-3 0  9993","line2":"2 45602  97.4870 138.0990 0007485 287.9842  72.0572 15.11696839331377","mean_motion":15.11696839,"eccentricity":0.0007485,"inclination_deg":97.487,"raan_deg":138.099,"arg_perigee_deg":287.9842,"mean_anomaly_deg":72.0572,"bstar":0.00014764,"rev_number":33137,"period_min":95.257194620621,"perigee_km":525.85342216875,"apogee_km":536.19643757777,"semimajor_km":6909.1619298733,"source":"CELESTRAK","updated_at":"2026-05-25T13:37:56.211306Z"}}}